Flag for U.S.A. Weather past 2 weeks in Charleston, West Virginia, U.S.A.

Now
61 °F

Fog.


Feels Like: 61 °F
Forecast: 60 / 73 °F
Wind: 6 mph from West

Location: Yeager Airport

Current Time: Jul 29, 2014 at 7:26:09 AM

Latest Report: Jul 29, 2014 at 6:54 AM


Visibility: 6 mi

Pressure: 29.96 "Hg

Humidity: 97%

Dew point: 60 °F

Location of CharlestonLocation

Historic Weather in Charleston — Graph

°F

Charleston temperature yesterday

Maximum temperature yesterday: 71 °F (at 12:54 PM)
Minimum temperature yesterday: 65 °F (at 10:54 PM)
Average temperature yesterday: 68 °F

Past Weeks' High & Low Weather Summary

 TemperatureHumidityPressure
High90 °F (Jul 23, 4:54 PM)100% (Jul 14, 5:54 AM)30.19 "Hg (Jul 14, 5:54 AM)
Low56 °F (Jul 17, 2:54 AM)36% (Jul 17, 3:54 PM)29.71 "Hg (Jul 27, 6:54 PM)
Average71 °F82%29.98 "Hg
* Reported Jul 14 5:54 AM — Jul 29 5:54 AM, Charleston, Weather by CustomWeather, © 2014

Note: Actual official high and low records may vary slightly from our data, if they occured in-between our weather recording intervals... More about our weather records

Advertising

Charleston weather history for previous 24 hours

 ConditionsComfort  
Time TempWeatherWind HumidityBarometerVisibility
5:54 AM
Jul 29
61 °FPassing clouds.3 mph100%29.94 "Hg8 mi
4:54 AM61 °FFog.5 mph100%29.93 "Hg6 mi
4:02 AM62 °FFog.5 mph100%29.94 "Hg2 mi
3:54 AM61 °FFog.6 mph100%29.93 "Hg4 mi
2:54 AM63 °FFog.No wind97%29.93 "Hg6 mi
1:54 AM63 °FFog.No wind100%29.93 "Hg6 mi
12:54 AM64 °FPartly cloudy.No wind97%29.93 "Hg8 mi
11:54 PM
Jul 28
65 °FMostly cloudy.No wind94%29.93 "Hg10 mi
10:54 PM65 °FPartly cloudy.No wind97%29.94 "Hg9 mi
9:54 PM66 °FPassing clouds.No wind96%29.94 "Hg10 mi
8:54 PM67 °FBroken clouds.9 mph87%29.92 "Hg10 mi
7:54 PM68 °FBroken clouds.6 mph84%29.91 "Hg10 mi
6:54 PM70 °FScattered clouds.3 mph81%29.91 "Hg10 mi
5:54 PM66 °FBroken clouds.7 mph93%29.92 "Hg10 mi
4:54 PM71 °FMore clouds than sun.12 mph71%29.90 "Hg10 mi
3:54 PM71 °FMore clouds than sun.8 mph68%29.89 "Hg10 mi
2:54 PM69 °FMore clouds than sun.10 mph68%29.89 "Hg10 mi
1:54 PM71 °FMore clouds than sun.13 mph66%29.88 "Hg10 mi
12:54 PM71 °FPartly sunny.14 mph68%29.88 "Hg10 mi
11:54 AM69 °FMostly cloudy.9 mph76%29.87 "Hg10 mi
10:54 AM68 °FOvercast.7 mph78%29.85 "Hg10 mi
9:54 AM68 °FOvercast.12 mph78%29.84 "Hg10 mi
8:54 AM68 °FBroken clouds.9 mph84%29.82 "Hg10 mi
7:54 AM67 °FScattered clouds.9 mph90%29.80 "Hg10 mi
Weather by CustomWeather, © 2014

See weather overviewHow to use our weather pages